Home   Weather   Częstochowa   Past weeks
Flag for Poland

Past Weather in Częstochowa, Poland — Yesterday and Last 2 Weeks

Now
43 °F

Fog.


Feels Like: 41 °F
Forecast: 63 / 37 °F
Wind: 3 mph from Northwest

Location: Katowice Airport

Current Time: Mar 22, 2019 at 8:07:11 am

Latest Report: Mar 22, 2019 at 7:00 am


Visibility: 3 mi

Pressure: 30.48 "Hg

Humidity: 87%

Dew Point: 39 °F

Location of CzęstochowaLocation

Past Weather in Częstochowa — Graph

°F

Częstochowa Temperature Yesterday

Maximum temperature yesterday: 50 °F (at 3:30 pm)
Minimum temperature yesterday: 27 °F (at 12:00 am)
Average temperature yesterday: 40 °F

High & Low Weather Summary for the Past Weeks

 TemperatureHumidityPressure
High66 °F (Mar 17, 3:00 pm)100% (Mar 12, 12:00 am)30.54 "Hg (Mar 12, 12:00 am)
Low19 °F (Mar 20, 4:30 am)19% (Mar 17, 3:30 pm)29.42 "Hg (Mar 15, 2:30 am)
Average42 °F68%29.90 "Hg
* Reported Mar 7 7:00 am — Mar 22 7:00 am, Częstochowa. Weather by CustomWeather, © 2019

Note: Actual official high and low records may vary slightly from our data, if they occured in-between our weather recording intervals... More about our weather records

Advertising

Częstochowa Weather History for the Previous 24 Hours

Scroll right to see more
 ConditionsComfort  
Time TempWeatherWind HumidityBarometerVisibility
7:00 am
Fri, Mar 22
43 °FFog.3 mph87%30.48 "Hg3 mi
6:30 am41 °FFog.1 mph87%30.48 "Hg3 mi
6:00 am43 °FFog.3 mph81%30.45 "Hg3 mi
5:30 am45 °FClear.9 mph81%30.45 "Hg4 mi
5:00 am43 °FFog.6 mph87%30.45 "Hg3 mi
4:30 am43 °FFog.3 mph87%30.45 "Hg3 mi
4:00 am45 °FFog.6 mph81%30.45 "Hg3 mi
3:30 am43 °FFog.2 mph87%30.45 "Hg3 mi
3:00 am43 °FFog.5 mph87%30.45 "Hg3 mi
2:30 am43 °FFog.2 mph87%30.48 "Hg2 mi
2:00 am43 °FFog.6 mph87%30.48 "Hg2 mi
1:30 am43 °FFog.2 mph87%30.48 "Hg2 mi
1:00 am41 °FFog.5 mph93%30.48 "Hg2 mi
12:30 am41 °FFog.3 mph87%30.48 "Hg2 mi
12:00 am43 °FFog.2 mph87%30.48 "Hg2 mi
11:30 pm
Thu, Mar 21
41 °FFog.2 mph93%30.48 "Hg2 mi
11:00 pm43 °FFog.2 mph87%30.48 "Hg2 mi
10:30 pm41 °FFog.1 mph87%30.48 "Hg2 mi
10:00 pm41 °FFog.1 mph87%30.48 "Hg1 mi
9:30 pm41 °FFog.2 mph87%30.48 "Hg1 mi
9:00 pm43 °FFog.5 mph87%30.48 "Hg2 mi
8:30 pm43 °FFog.5 mph81%30.48 "Hg2 mi
8:00 pm43 °FFog.3 mph81%30.48 "Hg2 mi
7:30 pm45 °FOvercast.7 mph81%30.48 "Hg4 mi
7:00 pm43 °FPassing clouds.5 mph81%30.48 "Hg5 mi
6:30 pm46 °FPartly cloudy.5 mph76%30.48 "Hg4 mi
6:00 pm48 °FPassing clouds.5 mph71%30.48 "HgN/A
5:30 pm48 °FOvercast.7 mph71%30.48 "HgN/A
5:00 pm48 °FOvercast.7 mph71%30.48 "HgN/A
4:30 pm48 °FMostly cloudy.9 mph66%30.48 "HgN/A
4:00 pm48 °FPartly sunny.12 mph66%30.48 "HgN/A
3:30 pm50 °FPartly sunny.13 mph62%30.48 "HgN/A
3:00 pm48 °FPartly sunny.10 mph66%30.48 "HgN/A
2:30 pm48 °FPartly sunny.10 mph62%30.51 "HgN/A
2:00 pm48 °FScattered clouds.10 mph62%30.51 "HgN/A
1:30 pm46 °FOvercast.9 mph62%30.51 "HgN/A
1:00 pm46 °FMore clouds than sun.9 mph57%30.51 "HgN/A
12:30 pm45 °FOvercast.10 mph61%30.54 "HgN/A
12:00 pm45 °FLow clouds.8 mph57%30.54 "HgN/A
11:30 am43 °FOvercast.9 mph61%30.54 "HgN/A
11:00 am43 °FMore clouds than sun.9 mph57%30.54 "HgN/A
10:30 am41 °FMore clouds than sun.9 mph61%30.54 "HgN/A
10:00 am41 °FBroken clouds.8 mph61%30.54 "HgN/A
9:30 am39 °FPartly sunny.7 mph61%30.54 "HgN/A
9:00 am39 °FPartly sunny.7 mph65%30.54 "HgN/A
8:30 am37 °FPartly sunny.6 mph65%30.54 "HgN/A
8:00 am37 °FPartly sunny.7 mph65%30.51 "Hg6 mi
Weather by CustomWeather, © 2019

See weather overview